PRC TEST SPACECRAFT (46389 NORAD) Tracking and Keplerian Element Data

This shows tracking and keplerian element data for the satellite.

Feedback or suggestion? Click here.




ElementValue
Catalog46389
NamePRC TEST SPACECRAFT
Epoch Orbit26
Epoch Day249.96810878
Epoch Year2020
RAAN57.4741
Inclination50.2062
Eccentricity0.0011757
Argument of Perigee288.4665
Mean Anonmoly218.9978
Mean Motion15.77064658
Decay Rate0.00011375
L11 46389U 20063A 20249.96810878 .00011375 00000-0 71862-4 0 9990
L22 46389 50.2062 57.4741 0011757 288.4665 218.9978 15.77064658 266



Live tracking and technical data element details for PRC TEST SPACECRAFT (NORAD 46389). PRC TEST SPACECRAFT can be tracked NOW for your location showing map with azimuth and elevation plus other details from your city location.







IsCatalogInMostPopularTable: catalog: 46389, numindb: 138
Update: records affected: 1



GetName: 46389 PRC TEST SPACECRAFT

Hit Count: updated at: Sun, 28 May 2023 19:18:49 GMT